DW7325 Weather Reports


Display with metric or nautical units.
time (UTC)temp
F
wind
direction
speed
MPH
gust
MPH
rain 1hr
in
rain 24hr
in
rain mn
in
humidity
%
barometer
mb
20260903221820 85 302 0.0 3.0 0.00 0.00 0.00 82 1012.5
20260903221713 85 302 0.0 3.0 0.00 0.00 0.00 82 1012.5
20260903221608 85 19 0.0 3.0 0.00 0.00 0.00 82 1012.4
20260903221502 85 193 0.0 3.0 0.00 0.00 0.00 82 1012.4
20260903221359 85 234 0.0 3.0 0.00 0.00 0.00 82 1012.4
20260903221255 85 234 0.0 3.0 0.00 0.00 0.00 82 1012.4
20260903220931 85 247 0.0 3.0 0.00 0.00 0.00 81 1012.4
20260903220824 85 42 0.0 3.0 0.00 0.00 0.00 82 1012.4
20260903220454 85 339 0.0 5.0 0.00 0.00 0.00 82 1012.4
20260903220351 85 339 0.0 5.0 0.00 0.00 0.00 82 1012.5
20260903220246 85 240 0.0 5.0 0.00 0.00 0.00 82 1012.5
20260903220140 85 69 0.0 5.0 0.00 0.00 0.00 82 1012.5
20260903220038 85 69 0.0 5.0 0.00 0.00 0.00 81 1012.6
20260903215935 85 69 0.0 5.0 0.00 0.00 0.00 81 1012.5
20260903215611 85 229 0.0 5.0 0.00 0.00 0.00 82 1012.6
20260903215505 85 229 1.0 5.0 0.00 0.00 0.00 82 1012.6
20260903215402 85 227 1.0 5.0 0.00 0.00 0.00 82 1012.7
20260903215255 85 214 1.0 5.0 0.00 0.00 0.00 82 1012.7
20260903215154 85 350 1.0 5.0 0.00 0.00 0.00 82 1012.7
20260903215046 85 215 1.0 5.0 0.00 0.00 0.00 82 1012.7
20260903214940 85 180 0.0 5.0 0.00 0.00 0.00 82 1012.7
20260903214837 85 239 1.0 5.0 0.00 0.00 0.00 82 1012.7
20260903214732 85 42 1.0 5.0 0.00 0.00 0.00 81 1012.7
20260903214625 85 61 1.0 5.0 0.00 0.00 0.00 82 1012.6
20260903214518 85 280 0.0 4.0 0.00 0.00 0.00 81 1012.6
20260903214411 85 17 0.0 3.0 0.00 0.00 0.00 82 1012.7
20260903214308 85 17 0.0 3.0 0.00 0.00 0.00 82 1012.6
20260903213942 85 197 0.0 3.0 0.00 0.00 0.00 81 1012.6
20260903213838 85 202 0.0 2.0 0.00 0.00 0.00 81 1012.7
20260903213730 85 338 0.0 2.0 0.00 0.00 0.00 81 1012.7
20260903213405 85 252 0.0 2.0 0.00 0.00 0.00 80 1012.7
20260903213258 85 57 0.0 2.0 0.00 0.00 0.00 81 1012.7
20260903212939 85 168 0.0 2.0 0.00 0.00 0.00 82 1012.8
20260903212835 85 192 0.0 2.0 0.00 0.00 0.00 82 1012.8
20260903212515 85 36 0.0 4.0 0.00 0.00 0.00 81 1012.8
20260903212410 85 202 0.0 4.0 0.00 0.00 0.00 82 1012.8
20260903212307 85 270 0.0 4.0 0.00 0.00 0.00 82 1012.8
20260903212201 85 159 0.0 4.0 0.00 0.00 0.00 82 1012.8
20260903211838 85 250 0.0 4.0 0.00 0.00 0.00 83 1012.8
20260903211730 85 202 0.0 4.0 0.00 0.00 0.00 83 1012.9
20260903211624 85 202 0.0 4.0 0.00 0.00 0.00 82 1012.9
20260903211517 85 196 0.0 4.0 0.00 0.00 0.00 82 1012.9
20260903211413 85 28 0.0 4.0 0.00 0.00 0.00 83 1012.9
20260903211308 85 178 0.0 4.0 0.00 0.00 0.00 82 1012.9
20260903211201 85 218 0.0 4.0 0.00 0.00 0.00 82 1012.9
20260903211058 85 216 0.0 4.0 0.00 0.00 0.00 82 1012.9
20260903210952 85 194 0.0 4.0 0.00 0.00 0.00 81 1012.9
20260903210845 85 198 0.0 4.0 0.00 0.00 0.00 81 1012.9
20260903210257 85 30 1.0 3.0 0.00 0.00 0.00 82 1012.9
20260903210155 85 339 0.0 3.0 0.00 0.00 0.00 82 1012.9
20260903205836 86 226 0.0 3.0 0.00 0.00 0.00 81 1012.9
20260903205732 86 234 0.0 3.0 0.00 0.00 0.00 81 1013.0
20260903205625 86 64 0.0 3.0 0.00 0.00 0.00 81 1012.9
20260903205520 86 36 0.0 3.0 0.00 0.00 0.00 80 1013.0
20260903205413 86 161 0.0 3.0 0.00 0.00 0.00 80 1013.0
20260903205047 86 130 0.0 3.0 0.00 0.00 0.00 81 1013.0
20260903204945 86 236 0.0 3.0 0.00 0.00 0.00 81 1013.0
20260903204837 86 171 0.0 3.0 0.00 0.00 0.00 80 1012.9
20260903204733 86 219 0.0 3.0 0.00 0.00 0.00 81 1012.9
20260903204407 86 251 0.0 4.0 0.00 0.00 0.00 80 1013.0
20260903204304 86 244 0.0 4.0 0.00 0.00 0.00 78 1013.0
20260903204159 86 85 0.0 4.0 0.00 0.00 0.00 80 1013.0
20260903204056 86 175 0.0 4.0 0.00 0.00 0.00 80 1013.0
20260903203949 86 155 0.0 4.0 0.00 0.00 0.00 79 1012.9
20260903203845 86 219 0.0 4.0 0.00 0.00 0.00 81 1013.0
20260903203739 86 221 0.0 4.0 0.00 0.00 0.00 81 1013.0
20260903203635 86 205 0.0 4.0 0.00 0.00 0.00 79 1012.9
20260903203530 86 266 0.0 4.0 0.00 0.00 0.00 83 1012.9
20260903202947 86 206 0.0 4.0 0.00 0.00 0.00 82 1013.0
20260903202843 86 88 0.0 4.0 0.00 0.00 0.00 81 1013.0
20260903202738 86 262 0.0 4.0 0.00 0.01 0.00 80 1012.9
20260903202413 86 30 0.0 3.0 0.00 0.01 0.00 82 1013.0
20260903202306 86 218 0.0 2.0 0.00 0.01 0.00 83 1013.0
20260903202200 86 113 0.0 2.0 0.00 0.01 0.00 83 1013.1
20260903202054 86 155 0.0 2.0 0.00 0.01 0.00 82 1013.1
20260903201951 86 105 0.0 2.0 0.00 0.01 0.00 82 1013.1
20260903201844 86 117 0.0 2.0 0.00 0.01 0.00 81 1013.1
20260903201737 86 261 0.0 3.0 0.00 0.01 0.00 81 1013.2
20260903201630 86 5 0.0 3.0 0.00 0.01 0.00 83 1013.2
20260903201526 86 92 0.0 3.0 0.00 0.01 0.00 84 1013.2
20260903201420 86 169 0.0 3.0 0.00 0.01 0.00 84 1013.3
20260903201313 86 221 0.0 3.0 0.00 0.01 0.00 84 1013.3
20260903201209 86 140 0.0 3.0 0.00 0.01 0.00 82 1013.3
20260903201102 86 187 0.0 3.0 0.00 0.01 0.00 83 1013.3
20260903200955 86 89 0.0 3.0 0.00 0.01 0.00 83 1013.3
20260903200852 86 213 0.0 3.0 0.00 0.01 0.00 83 1013.4
20260903200749 86 227 0.0 3.0 0.00 0.01 0.00 81 1013.4
20260903200643 86 71 0.0 3.0 0.00 0.01 0.00 81 1013.4
20260903200539 86 0 0.0 3.0 0.00 0.01 0.00 82 1013.4
20260903200433 86 196 0.0 3.0 0.00 0.01 0.00 82 1013.5
20260903200327 86 111 0.0 3.0 0.00 0.01 0.00 82 1013.5
20260903200006 86 161 0.0 3.0 0.00 0.01 0.00 81 1013.4
20260903195901 86 273 0.0 3.0 0.00 0.01 0.00 82 1013.5
20260903195756 86 205 0.0 3.0 0.00 0.01 0.00 82 1013.4
20260903195435 86 244 0.0 3.0 0.00 0.01 0.00 81 1013.5
20260903195330 86 99 0.0 3.0 0.00 0.01 0.00 80 1013.6
20260903195227 86 139 0.0 3.0 0.00 0.01 0.00 80 1013.6
20260903195120 86 139 0.0 3.0 0.00 0.01 0.00 79 1013.6
20260903195017 86 105 0.0 3.0 0.00 0.01 0.00 79 1013.6
20260903194915 87 219 0.0 3.0 0.00 0.01 0.00 79 1013.6
20260903194813 87 327 0.0 3.0 0.00 0.01 0.00 79 1013.6
20260903194709 87 189 0.0 5.0 0.00 0.01 0.00 79 1013.7
20260903194604 87 76 0.0 5.0 0.00 0.01 0.00 79 1013.7
20260903194239 87 204 0.0 5.0 0.00 0.01 0.00 79 1013.8
20260903194133 87 139 0.0 5.0 0.00 0.01 0.00 77 1013.8
20260903194028 87 229 0.0 5.0 0.00 0.01 0.00 77 1013.8
20260903193923 87 301 0.0 5.0 0.00 0.01 0.00 78 1013.8
20260903193819 87 180 1.0 5.0 0.00 0.01 0.00 77 1013.9
20260903193716 87 79 1.0 5.0 0.00 0.01 0.00 78 1013.8
20260903193611 86 157 1.0 5.0 0.00 0.01 0.00 78 1013.8
20260903193503 86 196 1.0 5.0 0.00 0.01 0.00 79 1014.0
20260903193356 86 233 1.0 5.0 0.00 0.01 0.00 78 1014.0
20260903193251 86 163 1.0 5.0 0.00 0.01 0.00 78 1014.0
20260903193143 86 169 1.0 5.0 0.00 0.01 0.00 78 1014.0
20260903193037 86 122 1.0 5.0 0.00 0.01 0.00 78 1014.0
20260903192934 86 115 1.0 5.0 0.00 0.01 0.00 77 1014.0
20260903192830 87 283 1.0 5.0 0.00 0.02 0.00 76 1014.0
20260903192725 87 237 1.0 4.0 0.00 0.02 0.00 75 1014.0
20260903192620 87 229 0.0 4.0 0.00 0.02 0.00 75 1014.0
20260903192518 87 103 0.0 4.0 0.00 0.02 0.00 75 1014.1
20260903192416 87 144 0.0 4.0 0.00 0.02 0.00 74 1014.1
20260903192308 87 90 0.0 4.0 0.00 0.02 0.00 75 1014.2
20260903192205 87 19 0.0 5.0 0.00 0.02 0.00 75 1014.2
20260903191836 87 219 0.0 5.0 0.00 0.03 0.00 75 1014.2
20260903191514 87 187 0.0 5.0 0.00 0.03 0.00 75 1014.2
20260903191412 87 184 0.0 5.0 0.00 0.03 0.00 74 1014.2
20260903191307 87 131 0.0 5.0 0.00 0.04 0.00 75 1014.2
20260903190938 87 63 1.0 5.0 0.00 0.04 0.00 76 1014.3
20260903190832 87 251 1.0 5.0 0.00 0.04 0.00 76 1014.2
20260903190727 87 165 1.0 5.0 0.00 0.04 0.00 76 1014.2
20260903190625 87 130 1.0 5.0 0.00 0.04 0.00 74 1014.3
20260903190520 87 244 1.0 5.0 0.00 0.04 0.00 75 1014.3
20260903190414 87 209 1.0 5.0 0.00 0.04 0.00 78 1014.3
20260903190311 87 236 1.0 5.0 0.00 0.04 0.00 77 1014.4
20260903190206 87 219 1.0 3.0 0.00 0.04 0.00 75 1014.3
20260903190101 87 229 1.0 3.0 0.00 0.04 0.00 75 1014.3
20260903185954 87 225 1.0 3.0 0.00 0.04 0.00 75 1014.3
20260903185850 87 221 1.0 3.0 0.00 0.04 0.00 74 1014.3
20260903185744 88 24 1.0 3.0 0.00 0.04 0.00 74 1014.4
20260903185639 88 254 0.0 3.0 0.00 0.04 0.00 74 1014.4
20260903185536 88 82 0.0 3.0 0.00 0.05 0.00 73 1014.4
20260903185433 88 113 1.0 3.0 0.00 0.05 0.00 73 1014.4
20260903185328 88 176 0.0 3.0 0.00 0.07 0.00 73 1014.5
20260903185224 88 103 0.0 3.0 0.00 0.08 0.00 74 1014.4
20260903185117 88 88 0.0 3.0 0.00 0.10 0.00 75 1014.4
20260903185010 87 136 0.0 3.0 0.00 0.13 0.00 75 1014.5
20260903184902 87 86 1.0 3.0 0.00 0.17 0.00 76 1014.5
20260903184756 87 123 1.0 3.0 0.00 0.21 0.00 76 1014.6
20260903184649 87 181 1.0 2.0 0.00 0.24 0.00 75 1014.6
20260903184326 88 125 0.0 2.0 0.00 0.30 0.00 74 1014.6
20260903184223 87 201 0.0 2.0 0.00 0.31 0.00 74 1014.6
20260903183859 87 254 0.0 6.0 0.00 0.31 0.00 74 1014.6
20260903183755 87 247 0.0 6.0 0.00 0.31 0.00 73 1014.6
20260903183430 87 194 0.0 6.0 0.00 0.32 0.00 76 1014.7
20260903183327 87 151 0.0 6.0 0.00 0.32 0.00 76 1014.6
20260903183223 87 155 0.0 6.0 0.00 0.32 0.00 75 1014.5
20260903183119 87 75 1.0 6.0 0.00 0.32 0.00 76 1014.6
20260903183014 87 22 1.0 6.0 0.00 0.32 0.00 74 1014.6
20260903182910 87 234 1.0 6.0 0.00 0.32 0.00 75 1014.7
20260903182806 87 130 1.0 6.0 0.00 0.32 0.00 75 1014.8
20260903182439 87 254 1.0 6.0 0.00 0.32 0.00 73 1014.9
20260903182333 87 191 1.0 6.0 0.00 0.32 0.00 71 1015.0
20260903182227 87 52 1.0 6.0 0.00 0.32 0.00 71 1015.0
20260903182125 87 221 1.0 6.0 0.00 0.32 0.00 73 1015.0
20260903182022 87 269 1.0 6.0 0.00 0.32 0.00 75 1015.0
20260903181658 86 165 1.0 2.0 0.00 0.32 0.00 77 1015.0
20260903181553 86 73 1.0 2.0 0.00 0.32 0.00 77 1015.0
20260903181446 86 107 1.0 2.0 0.00 0.32 0.00 78 1015.0
20260903181338 86 232 0.0 2.0 0.00 0.32 0.00 79 1015.1
20260903181014 85 259 0.0 2.0 0.00 0.32 0.00 76 1015.0
20260903180909 86 273 0.0 2.0 0.00 0.32 0.00 76 1015.0
20260903180802 86 285 0.0 2.0 0.00 0.32 0.00 77 1014.8
20260903180700 86 248 0.0 1.0 0.00 0.32 0.00 75 1014.6
20260903180554 86 217 0.0 1.0 0.00 0.32 0.00 76 1014.5
20260903180447 85 107 0.0 1.0 0.00 0.32 0.00 78 1014.5
20260903180341 86 107 0.0 1.0 0.00 0.32 0.00 78 1014.5
20260903180234 86 107 0.0 1.0 0.00 0.32 0.00 77 1014.6
20260903180128 86 149 0.0 2.0 0.00 0.32 0.00 75 1014.6
20260903180021 86 100 0.0 2.0 0.00 0.32 0.00 75 1014.7
20260903175915 86 89 0.0 2.0 0.00 0.32 0.00 72 1014.7
20260903175810 87 234 0.0 2.0 0.00 0.32 0.00 72 1014.9
20260903175706 87 234 0.0 2.0 0.00 0.32 0.00 73 1014.9
20260903175601 87 257 0.0 2.0 0.00 0.32 0.00 71 1014.9
20260903175455 87 206 0.0 2.0 0.00 0.32 0.00 76 1014.9
20260903175351 86 105 0.0 2.0 0.00 0.32 0.00 76 1015.0
20260903175249 86 126 0.0 2.0 0.00 0.32 0.00 75 1014.9
20260903175141 87 286 0.0 3.0 0.00 0.32 0.00 76 1014.9
20260903174557 87 142 0.0 3.0 0.00 0.32 0.00 74 1015.2
20260903174451 87 94 0.0 3.0 0.00 0.32 0.00 73 1015.3
20260903174127 86 62 0.0 3.0 0.00 0.32 0.00 74 1015.4
20260903174019 86 111 0.0 3.0 0.00 0.32 0.00 75 1015.5
20260903173915 86 90 0.0 3.0 0.00 0.32 0.00 77 1015.5
20260903173809 86 164 0.0 3.0 0.00 0.32 0.00 76 1015.5
20260903173706 86 234 0.0 3.0 0.00 0.32 0.00 76 1015.6
20260903173604 86 345 0.0 3.0 0.00 0.32 0.00 77 1015.7
20260903173457 86 121 0.0 3.0 0.00 0.32 0.00 78 1015.7
20260903173352 85 92 0.0 3.0 0.00 0.32 0.00 77 1015.8
20260903173244 85 203 0.0 3.0 0.00 0.32 0.00 77 1015.8
20260903173138 85 300 0.0 2.0 0.00 0.32 0.00 76 1015.8
20260903173035 85 300 0.0 2.0 0.00 0.32 0.00 76 1015.8
20260903172933 86 300 0.0 2.0 0.00 0.32 0.00 75 1015.7
20260903172607 86 261 0.0 1.0 0.00 0.32 0.00 75 1015.6
20260903172501 86 36 0.0 1.0 0.00 0.32 0.00 72 1015.5
20260903172141 85 71 0.0 2.0 0.00 0.32 0.00 77 1015.6
20260903172034 85 71 0.0 2.0 0.00 0.32 0.00 75 1015.6
20260903171931 85 11 0.0 2.0 0.00 0.32 0.00 75 1015.7
20260903171829 85 271 0.0 2.0 0.00 0.32 0.00 77 1015.7
20260903171723 85 68 0.0 2.0 0.00 0.32 0.00 77 1015.8
20260903171619 85 306 0.0 2.0 0.00 0.32 0.00 78 1015.8
20260903171512 85 306 0.0 2.0 0.00 0.32 0.00 80 1015.9
20260903171407 85 53 0.0 2.0 0.00 0.32 0.00 82 1015.9
20260903171301 85 53 0.0 2.0 0.00 0.32 0.00 80 1016.0
20260903171158 85 53 0.0 2.0 0.00 0.32 0.00 80 1016.0
20260903171051 85 88 0.0 2.0 0.00 0.32 0.00 74 1016.1
20260903170945 84 88 0.0 2.0 0.00 0.32 0.00 75 1016.1
20260903170840 84 121 0.0 2.0 0.00 0.32 0.00 74 1016.1
20260903170733 85 132 0.0 2.0 0.00 0.32 0.00 74 1016.1
20260903170629 85 148 0.0 2.0 0.00 0.32 0.00 75 1016.2
20260903170521 85 128 0.0 2.0 0.00 0.32 0.00 77 1016.2
20260903170415 84 115 0.0 2.0 0.00 0.32 0.00 79 1016.2
20260903170313 84 63 0.0 2.0 0.00 0.32 0.00 79 1016.3
20260903165945 83 250 0.0 3.0 0.00 0.32 0.00 79 1016.4
20260903165838 83 172 0.0 3.0 0.00 0.32 0.00 79 1016.5
20260903165035 84 268 0.0 4.0 0.00 0.32 0.00 77 1016.6
20260903164930 84 113 0.0 4.0 0.00 0.32 0.00 77 1016.5
20260903164826 84 322 1.0 4.0 0.00 0.32 0.00 78 1016.5
20260903164242 84 9 1.0 4.0 0.00 0.32 0.00 79 1016.6
20260903164140 83 34 1.0 4.0 0.00 0.32 0.00 79 1016.6
20260903164035 83 153 1.0 4.0 0.00 0.32 0.00 79 1016.7
20260903163931 83 44 1.0 4.0 0.00 0.32 0.00 80 1016.7
20260903163826 83 83 1.0 4.0 0.00 0.32 0.00 78 1016.7
20260903163722 83 111 1.0 4.0 0.00 0.32 0.00 79 1016.5
20260903163618 84 80 0.0 4.0 0.00 0.32 0.00 79 1016.6
20260903163515 83 80 0.0 4.0 0.00 0.32 0.00 80 1016.6
20260903163147 83 76 0.0 3.0 0.00 0.32 0.00 80 1016.7
20260903163043 83 281 0.0 2.0 0.00 0.32 0.00 81 1016.8
20260903162938 83 238 0.0 2.0 0.00 0.32 0.00 82 1016.7
20260903162832 83 340 0.0 2.0 0.00 0.32 0.00 82 1016.8
20260903162729 83 309 0.0 2.0 0.00 0.32 0.00 82 1016.8
20260903162624 83 63 0.0 2.0 0.00 0.32 0.00 83 1016.8
20260903162519 83 63 0.0 2.0 0.00 0.32 0.00 83 1016.8
20260903162158 82 103 0.0 2.0 0.00 0.32 0.00 83 1016.8
20260903162052 82 269 0.0 2.0 0.00 0.32 0.00 86 1016.8
20260903161947 82 346 0.0 2.0 0.00 0.32 0.00 83 1016.8
20260903161842 82 107 0.0 2.0 0.00 0.32 0.00 85 1016.8
20260903161738 82 22 0.0 2.0 0.00 0.32 0.00 86 1016.8
20260903161634 81 0 0.0 2.0 0.00 0.32 0.00 85 1016.9
20260903161527 81 53 0.0 2.0 0.00 0.32 0.00 85 1016.9
20260903161424 82 101 0.0 2.0 0.00 0.32 0.00 83 1016.9
20260903161322 82 101 0.0 2.0 0.00 0.32 0.00 83 1016.8
20260903161215 82 168 0.0 2.0 0.00 0.32 0.00 82 1016.8
20260903161112 82 171 0.0 2.0 0.00 0.32 0.00 85 1016.8
20260903160749 82 76 0.0 2.0 0.00 0.32 0.00 87 1017.1
20260903160424 82 62 0.0 2.0 0.00 0.32 0.00 86 1017.2
20260903155844 82 18 0.0 2.0 0.00 0.32 0.00 85 1017.1
20260903155741 82 22 0.0 2.0 0.00 0.32 0.00 86 1017.1
20260903155639 82 355 0.0 2.0 0.00 0.32 0.00 85 1017.1
20260903155533 82 355 0.0 2.0 0.00 0.32 0.00 84 1017.1
20260903155430 82 355 0.0 2.0 0.00 0.32 0.00 85 1017.1
20260903155107 82 355 0.0 2.0 0.00 0.32 0.00 85 1017.1
20260903155002 82 355 0.0 2.0 0.00 0.32 0.00 86 1017.0
20260903154854 82 355 0.0 1.0 0.00 0.32 0.00 85 1016.9
20260903154747 82 5 0.0 1.0 0.00 0.32 0.00 85 1016.9
20260903154642 82 26 0.0 0.0 0.00 0.32 0.00 86 1016.8
20260903154540 82 26 0.0 0.0 0.00 0.32 0.00 86 1016.8
20260903154437 82 26 0.0 0.0 0.00 0.32 0.00 86 1016.8
20260903153852 81 26 0.0 2.0 0.00 0.32 0.00 85 1016.7
20260903153749 81 26 0.0 2.0 0.00 0.32 0.00 85 1016.7
20260903153426 81 34 0.0 2.0 0.00 0.32 0.00 86 1016.8
20260903153318 81 34 0.0 2.0 0.00 0.32 0.00 86 1016.8
20260903153214 81 243 0.0 2.0 0.00 0.32 0.00 87 1016.9
20260903152629 80 145 0.0 2.0 0.00 0.32 0.00 88 1016.7
20260903152522 80 146 0.0 2.0 0.00 0.32 0.00 88 1016.8
20260903152421 80 194 0.0 2.0 0.00 0.32 0.00 88 1016.7
20260903152316 80 10 0.0 1.0 0.00 0.32 0.00 87 1016.8
20260903152210 80 10 0.0 1.0 0.00 0.32 0.00 87 1016.8
20260903152104 80 10 0.0 1.0 0.00 0.32 0.00 87 1016.8
20260903152000 80 10 0.0 1.0 0.00 0.32 0.00 88 1016.7
20260903151857 79 19 0.0 1.0 0.00 0.32 0.00 89 1016.8
20260903151752 80 251 0.0 1.0 0.00 0.32 0.00 89 1016.8
20260903151649 79 269 0.0 1.0 0.00 0.32 0.00 88 1016.7
20260903151542 79 121 0.0 1.0 0.00 0.32 0.00 89 1016.7
20260903151437 79 117 0.0 1.0 0.00 0.32 0.00 89 1016.8
20260903151331 79 325 0.0 1.0 0.00 0.32 0.00 90 1016.8
20260903151010 79 325 0.0 1.0 0.00 0.32 0.00 90 1016.8
20260903150904 79 325 0.0 1.0 0.00 0.32 0.00 90 1016.8
20260903150536 79 325 0.0 1.0 0.00 0.32 0.00 89 1016.8
20260903150430 79 325 0.0 1.0 0.00 0.32 0.00 89 1016.9
20260903150327 79 325 0.0 1.0 0.00 0.32 0.00 89 1016.8
20260903150222 79 27 0.0 1.0 0.00 0.32 0.00 89 1016.8
20260903150114 79 355 0.0 1.0 0.00 0.32 0.00 89 1016.8
20260903150007 79 355 0.0 1.0 0.00 0.32 0.00 90 1016.7
20260903145906 79 179 0.0 1.0 0.00 0.32 0.00 89 1016.7
20260903145803 79 186 0.0 1.0 0.00 0.32 0.00 89 1016.7
20260903145658 79 209 0.0 1.0 0.00 0.32 0.00 91 1016.7
20260903145336 78 306 0.0 0.0 0.00 0.32 0.00 91 1016.8
20260903145230 78 180 0.0 0.0 0.00 0.32 0.00 91 1016.7
20260903145125 78 180 0.0 2.0 0.00 0.32 0.00 92 1016.8
20260903145018 78 180 0.0 2.0 0.00 0.32 0.00 92 1016.8
20260903144914 78 127 0.0 2.0 0.00 0.32 0.00 93 1016.8
20260903144809 77 127 0.0 2.0 0.00 0.32 0.00 93 1016.8
20260903144703 77 127 0.0 2.0 0.00 0.32 0.00 93 1016.9
20260903144337 77 5 0.0 2.0 0.00 0.32 0.00 94 1016.9
20260903144235 77 5 0.0 2.0 0.00 0.32 0.00 94 1016.9
20260903144129 76 227 0.0 2.0 0.00 0.32 0.00 94 1016.9
20260903144022 76 227 0.0 2.0 0.00 0.32 0.00 95 1016.9
20260903143916 76 227 0.0 2.0 0.00 0.32 0.00 95 1016.9
20260903143814 76 227 0.0 2.0 0.00 0.32 0.00 96 1016.9
20260903143711 76 94 0.0 1.0 0.00 0.32 0.00 96 1016.8
20260903143348 76 45 0.0 1.0 0.00 0.32 0.00 96 1016.7
20260903143243 76 82 0.0 0.0 0.00 0.32 0.00 96 1016.7
20260903143137 75 137 0.0 0.0 0.00 0.32 0.00 96 1016.7
20260903142818 75 137 0.0 1.0 0.00 0.32 0.00 97 1016.6
20260903142714 75 198 0.0 1.0 0.00 0.32 0.00 97 1016.6
20260903142130 75 103 0.0 2.0 0.00 0.32 0.00 97 1016.7
20260903142026 75 103 0.0 2.0 0.00 0.32 0.00 97 1016.6
20260903141918 75 103 0.0 2.0 0.00 0.32 0.00 97 1016.6
20260903141812 75 103 0.0 2.0 0.00 0.32 0.00 97 1016.6
20260903141706 75 103 0.0 2.0 0.00 0.32 0.00 97 1016.5
20260903141604 75 291 0.0 2.0 0.00 0.32 0.00 97 1016.5
20260903141458 75 9 0.0 2.0 0.00 0.32 0.00 97 1016.5
20260903141352 75 34 0.0 2.0 0.00 0.32 0.00 97 1016.4
20260903141247 75 11 0.0 1.0 0.00 0.32 0.00 97 1016.4
20260903141142 75 114 0.0 0.0 0.00 0.32 0.00 97 1016.4
20260903140604 75 260 0.0 0.0 0.00 0.32 0.00 98 1016.4
20260903140457 74 210 0.0 0.0 0.00 0.32 0.00 98 1016.4
20260903140350 75 210 0.0 0.0 0.00 0.32 0.00 98 1016.3
20260903140246 75 210 0.0 0.0 0.00 0.32 0.00 98 1016.3
20260903140142 74 261 0.0 0.0 0.00 0.32 0.00 98 1016.3
20260903140037 74 300 0.0 0.0 0.00 0.32 0.00 98 1016.3
20260903135929 74 276 0.0 0.0 0.00 0.32 0.00 98 1016.3
20260903135824 74 276 0.0 0.0 0.00 0.32 0.00 98 1016.3
20260903135717 74 276 0.0 0.0 0.00 0.32 0.00 97 1016.3
20260903135613 74 276 0.0 0.0 0.00 0.32 0.00 97 1016.4
20260903135509 74 276 0.0 0.0 0.00 0.32 0.00 97 1016.4
20260903134704 74 271 0.0 1.0 0.00 0.32 0.00 98 1016.4
20260903134557 74 271 0.0 1.0 0.00 0.32 0.00 98 1016.4
20260903134450 74 271 0.0 1.0 0.00 0.32 0.00 98 1016.4
20260903134343 74 299 0.0 1.0 0.00 0.32 0.00 98 1016.4
20260903134238 74 284 0.0 1.0 0.00 0.32 0.00 98 1016.4
20260903134134 74 272 0.0 1.0 0.00 0.32 0.00 98 1016.4
20260903134029 74 22 0.0 0.0 0.00 0.32 0.00 98 1016.3
20260903133923 74 22 0.0 0.0 0.00 0.32 0.00 98 1016.4
20260903133816 74 22 0.0 0.0 0.00 0.32 0.00 98 1016.5
20260903133714 74 22 0.0 0.0 0.00 0.32 0.00 98 1016.5
20260903133608 74 22 0.0 0.0 0.00 0.32 0.00 98 1016.6
20260903133022 74 22 0.0 0.0 0.00 0.32 0.00 97 1016.6
20260903132917 74 22 0.0 0.0 0.00 0.32 0.00 98 1016.6
20260903132810 74 22 0.0 0.0 0.00 0.32 0.00 97 1016.7
20260903132443 74 22 0.0 1.0 0.00 0.32 0.00 97 1016.7
20260903132336 74 22 0.0 1.0 0.00 0.32 0.00 97 1016.8
20260903132231 74 65 0.0 0.0 0.00 0.32 0.00 98 1016.8
20260903132126 74 252 0.0 0.0 0.00 0.32 0.00 97 1016.8
20260903132018 74 252 0.0 0.0 0.00 0.32 0.00 98 1016.9
20260903131913 74 252 0.0 0.0 0.00 0.32 0.00 98 1016.9
20260903131810 74 252 0.0 0.0 0.00 0.32 0.00 98 1017.0
20260903131705 74 252 0.0 0.0 0.00 0.32 0.00 98 1017.0
20260903131601 74 252 0.0 1.0 0.00 0.32 0.00 98 1017.0
20260903131459 74 252 0.0 1.0 0.00 0.32 0.00 98 1016.9
20260903131357 74 44 0.0 1.0 0.00 0.32 0.00 98 1016.9
20260903131250 73 344 0.0 1.0 0.00 0.32 0.00 98 1016.9
20260903131145 73 344 0.0 1.0 0.00 0.32 0.00 98 1016.9
20260903131038 73 299 0.0 1.0 0.00 0.32 0.00 98 1017.0
20260903130453 73 109 0.0 1.0 0.00 0.32 0.00 97 1017.2
20260903130347 73 109 0.0 1.0 0.00 0.32 0.00 97 1017.3
20260903125801 73 336 0.0 0.0 0.00 0.32 0.00 97 1017.4
20260903125657 73 334 0.0 0.0 0.00 0.32 0.00 97 1017.5
20260903125555 73 334 0.0 0.0 0.00 0.32 0.00 97 1017.5
20260903125449 73 334 0.0 0.0 0.00 0.32 0.00 97 1017.5
20260903125345 73 334 0.0 0.0 0.00 0.32 0.00 98 1017.6
20260903125242 73 334 0.0 0.0 0.00 0.32 0.00 98 1017.5
20260903125138 73 334 0.0 0.0 0.00 0.32 0.00 97 1017.6
20260903125036 73 334 0.0 0.0 0.00 0.32 0.00 97 1017.6
20260903124929 73 334 0.0 0.0 0.00 0.32 0.00 98 1017.6
20260903124823 73 334 0.0 0.0 0.00 0.32 0.00 98 1017.6
20260903124720 73 334 0.0 0.0 0.00 0.32 0.00 98 1017.6
20260903124614 73 334 0.0 0.0 0.00 0.32 0.00 98 1017.7
20260903124507 73 334 0.0 0.0 0.00 0.32 0.00 98 1017.6
20260903124403 73 324 0.0 0.0 0.00 0.32 0.00 98 1017.6
20260903123555 72 24 0.0 1.0 0.00 0.32 0.00 97 1017.6
20260903123451 72 24 0.0 1.0 0.00 0.32 0.00 98 1017.6
20260903123344 72 24 0.0 1.0 0.00 0.32 0.00 97 1017.6
20260903123239 72 308 0.0 1.0 0.00 0.32 0.00 97 1017.7
20260903122912 72 5 0.0 1.0 0.00 0.32 0.00 97 1017.6
20260903122805 72 5 0.0 1.0 0.00 0.32 0.00 97 1017.6
20260903122700 72 19 0.0 0.0 0.00 0.32 0.00 97 1017.6
20260903122554 72 19 0.0 0.0 0.00 0.32 0.00 97 1017.6
20260903122448 72 19 0.0 0.0 0.00 0.32 0.00 97 1017.6
20260903122342 72 19 0.0 2.0 0.00 0.32 0.00 97 1017.6
20260903122235 72 19 0.0 2.0 0.00 0.32 0.00 97 1017.7
20260903122131 72 19 0.0 2.0 0.00 0.32 0.00 97 1017.7
20260903122026 72 19 0.0 2.0 0.00 0.32 0.00 97 1017.6
20260903121439 72 22 0.0 2.0 0.00 0.32 0.00 97 1017.6
20260903121335 72 87 0.0 2.0 0.00 0.32 0.00 97 1017.6
20260903121227 72 36 0.0 2.0 0.00 0.32 0.00 97 1017.6
20260903120901 72 62 0.0 2.0 0.00 0.32 0.00 97 1017.5
20260903120754 72 5 0.0 2.0 0.00 0.32 0.00 97 1017.5
20260903120431 72 11 0.0 2.0 0.00 0.32 0.00 97 1017.4
20260903120323 72 0 0.0 2.0 0.00 0.32 0.00 97 1017.4
20260903120216 72 63 0.0 2.0 0.00 0.32 0.00 97 1017.4
20260903120109 72 24 0.0 2.0 0.00 0.32 0.00 97 1017.4
20260903120002 72 26 0.0 2.0 0.00 0.32 0.00 97 1017.5
20260903115856 72 355 0.0 2.0 0.00 0.32 0.00 97 1017.5
20260903115753 72 355 0.0 2.0 0.00 0.32 0.00 97 1017.5
20260903115649 72 355 0.0 3.0 0.00 0.32 0.00 97 1017.5
20260903115541 72 33 0.0 3.0 0.00 0.32 0.00 97 1017.5
20260903115215 72 348 0.0 3.0 0.00 0.32 0.00 97 1017.6
20260903115111 72 5 0.0 3.0 0.00 0.32 0.00 97 1017.6
20260903115004 72 5 0.0 3.0 0.00 0.32 0.00 97 1017.6
20260903114859 72 58 0.0 3.0 0.00 0.32 0.00 97 1017.5
20260903114754 72 58 0.0 3.0 0.00 0.32 0.00 97 1017.5
20260903114651 72 52 0.0 3.0 0.00 0.32 0.00 97 1017.5
20260903114325 72 30 0.0 3.0 0.00 0.32 0.00 97 1017.5
20260903114218 72 26 0.0 3.0 0.00 0.32 0.00 97 1017.5
20260903114112 72 16 0.0 3.0 0.00 0.32 0.00 97 1017.5
20260903114006 72 17 0.0 3.0 0.00 0.32 0.00 97 1017.5
20260903113901 72 71 0.0 3.0 0.00 0.32 0.00 97 1017.4
20260903113753 72 19 0.0 3.0 0.00 0.32 0.00 97 1017.5
20260903113646 72 349 0.0 1.0 0.00 0.32 0.00 97 1017.4
20260903113320 72 32 0.0 1.0 0.00 0.32 0.00 97 1017.3
20260903112959 72 349 0.0 2.0 0.00 0.32 0.00 97 1017.1
20260903112855 72 113 0.0 2.0 0.00 0.32 0.00 97 1017.1
20260903112753 72 61 0.0 2.0 0.00 0.32 0.00 97 1017.1
20260903112428 72 347 0.0 2.0 0.00 0.32 0.00 97 1017.1
20260903111850 72 296 0.0 1.0 0.00 0.32 0.00 97 1016.7
20260903111745 72 296 0.0 1.0 0.00 0.32 0.00 97 1016.6
20260903111639 72 296 0.0 1.0 0.00 0.32 0.00 97 1016.6
20260903111537 72 296 0.0 1.0 0.00 0.32 0.00 97 1016.6
20260903111215 72 257 0.0 1.0 0.00 0.32 0.00 97 1016.5
20260903111108 72 355 0.0 0.0 0.00 0.32 0.00 97 1016.6
20260903111003 72 342 0.0 0.0 0.00 0.32 0.00 97 1016.7
20260903110856 72 342 0.0 0.0 0.00 0.32 0.00 97 1016.7
20260903110749 72 342 0.0 0.0 0.00 0.32 0.00 97 1016.6
20260903110644 72 342 0.0 0.0 0.00 0.32 0.00 97 1016.6
20260903110317 72 286 0.0 2.0 0.00 0.32 0.00 97 1016.5
20260903110211 72 350 0.0 1.0 0.00 0.32 0.00 97 1016.5
20260903110106 72 350 0.0 1.0 0.00 0.32 0.00 97 1016.5
20260903110000 72 350 0.0 1.0 0.00 0.32 0.00 97 1016.4
20260903105854 72 350 0.0 1.0 0.00 0.32 0.00 97 1016.3
20260903105747 72 350 0.0 1.0 0.00 0.32 0.00 97 1016.3
20260903105641 72 350 0.0 1.0 0.00 0.32 0.00 97 1016.2
20260903105537 72 350 0.0 1.0 0.00 0.32 0.00 97 1016.2
20260903105214 71 315 0.0 0.0 0.00 0.32 0.00 97 1016.0
20260903105110 71 315 0.0 0.0 0.00 0.32 0.00 97 1016.0
20260903105004 71 315 0.0 0.0 0.00 0.32 0.00 97 1015.9
20260903104900 71 315 0.0 0.0 0.00 0.32 0.00 97 1015.9
20260903104534 71 274 0.0 0.0 0.00 0.32 0.00 97 1015.8
20260903104431 71 274 0.0 0.0 0.00 0.32 0.00 97 1015.8
20260903104329 71 274 0.0 0.0 0.00 0.32 0.00 97 1015.8
20260903104224 71 274 0.0 0.0 0.00 0.32 0.00 97 1015.8
20260903104117 71 274 0.0 0.0 0.00 0.32 0.00 97 1015.8
20260903104009 71 274 0.0 0.0 0.00 0.32 0.00 97 1015.7
20260903103905 71 274 0.0 0.0 0.00 0.32 0.00 97 1015.7
20260903103803 71 274 0.0 0.0 0.00 0.32 0.00 97 1015.7
20260903103656 71 274 0.0 0.0 0.00 0.32 0.00 97 1015.7
20260903103549 71 274 0.0 0.0 0.00 0.32 0.00 97 1015.7
20260903103446 71 274 0.0 0.0 0.00 0.32 0.00 97 1015.6
20260903103342 71 274 0.0 0.0 0.00 0.32 0.00 97 1015.6
20260903103235 71 274 0.0 0.0 0.00 0.32 0.00 97 1015.5
20260903103130 71 274 0.0 0.0 0.00 0.32 0.00 97 1015.5
20260903102545 71 274 0.0 0.0 0.00 0.32 0.00 97 1015.5
20260903102439 71 274 0.0 0.0 0.00 0.32 0.00 97 1015.5
20260903102335 71 274 0.0 0.0 0.00 0.32 0.00 97 1015.4
20260903102229 71 274 0.0 0.0 0.00 0.32 0.00 97 1015.4
20260903102122 71 274 0.0 0.0 0.00 0.32 0.00 97 1015.5
20260903102018 71 274 0.0 0.0 0.00 0.32 0.00 97 1015.4
20260903101912 71 274 0.0 0.0 0.00 0.32 0.00 97 1015.5
20260903101551 71 274 0.0 0.0 0.00 0.32 0.00 97 1015.4
20260903101445 71 274 0.0 0.0 0.00 0.32 0.00 97 1015.3
20260903101125 71 274 0.0 0.0 0.00 0.32 0.00 97 1015.4
20260903101023 71 274 0.0 0.0 0.00 0.32 0.00 97 1015.4
20260903100920 71 274 0.0 0.0 0.00 0.32 0.00 97 1015.4
20260903100817 71 274 0.0 0.0 0.00 0.32 0.00 97 1015.4
20260903100713 71 274 0.0 0.0 0.00 0.32 0.00 97 1015.4
20260903100611 71 274 0.0 0.0 0.00 0.32 0.00 97 1015.4
20260903100503 71 274 0.0 0.0 0.00 0.32 0.00 97 1015.4
20260903100401 71 274 0.0 0.0 0.00 0.32 0.00 97 1015.3
20260903100258 71 274 0.0 0.0 0.00 0.32 0.00 97 1015.4
20260903100151 71 274 0.0 0.0 0.00 0.32 0.00 97 1015.4
20260903100048 71 274 0.0 0.0 0.00 0.32 0.00 97 1015.4
20260903095726 71 274 0.0 0.0 0.00 0.32 0.00 97 1015.5
20260903095620 71 274 0.0 0.0 0.00 0.32 0.00 97 1015.4
20260903095512 71 274 0.0 0.0 0.00 0.32 0.00 97 1015.5
20260903095148 71 274 0.0 0.0 0.00 0.32 0.00 97 1015.5
20260903095041 71 274 0.0 0.0 0.00 0.32 0.00 97 1015.5
20260903094936 71 274 0.0 0.0 0.00 0.32 0.00 97 1015.5
20260903094831 71 274 0.0 0.0 0.00 0.32 0.00 97 1015.5
20260903094728 71 274 0.0 0.0 0.00 0.32 0.00 97 1015.5
20260903094621 71 274 0.0 0.0 0.00 0.32 0.00 97 1015.5
20260903094515 71 274 0.0 0.0 0.00 0.32 0.00 97 1015.5
20260903094413 71 274 0.0 0.0 0.00 0.32 0.00 97 1015.5
20260903094311 71 274 0.0 0.0 0.00 0.32 0.00 97 1015.5
20260903094207 71 274 0.0 0.0 0.00 0.32 0.00 97 1015.5
20260903094100 71 274 0.0 0.0 0.00 0.32 0.00 97 1015.5
20260903093953 71 274 0.0 0.0 0.00 0.32 0.00 97 1015.6
20260903093849 71 274 0.0 0.0 0.00 0.32 0.00 97 1015.5
20260903093748 71 274 0.0 0.0 0.00 0.32 0.00 97 1015.5
20260903093644 71 274 0.0 0.0 0.00 0.32 0.00 97 1015.6
20260903093322 71 274 0.0 0.0 0.00 0.32 0.00 97 1015.5
20260903093220 71 274 0.0 0.0 0.00 0.32 0.00 97 1015.5
20260903093118 71 274 0.0 0.0 0.00 0.32 0.00 97 1015.5
20260903093011 71 274 0.0 0.0 0.00 0.32 0.00 97 1015.5
20260903092903 71 274 0.0 0.0 0.00 0.32 0.00 97 1015.5
20260903092755 71 274 0.0 0.0 0.00 0.32 0.00 97 1015.5
20260903092648 71 274 0.0 0.0 0.00 0.32 0.00 97 1015.6
20260903092541 71 274 0.0 0.0 0.00 0.32 0.00 97 1015.6
20260903092439 71 274 0.0 0.0 0.00 0.32 0.00 97 1015.6
20260903092331 71 274 0.0 0.0 0.00 0.32 0.00 97 1015.6
20260903092225 71 274 0.0 0.0 0.00 0.32 0.00 97 1015.6
20260903092123 71 274 0.0 0.0 0.00 0.32 0.00 97 1015.6
20260903092020 71 274 0.0 0.0 0.00 0.32 0.00 97 1015.7
20260903091913 71 274 0.0 0.0 0.00 0.32 0.00 97 1015.7
20260903091807 71 274 0.0 0.0 0.00 0.32 0.00 97 1015.6
20260903091701 71 274 0.0 0.0 0.00 0.32 0.00 97 1015.6
20260903091556 71 307 0.0 0.0 0.00 0.32 0.00 97 1015.6
20260903091450 71 307 0.0 1.0 0.00 0.32 0.00 97 1015.6
20260903091346 71 307 0.0 1.0 0.00 0.32 0.00 97 1015.6
20260903091243 71 247 0.0 0.0 0.00 0.32 0.00 97 1015.6
20260903090916 71 247 0.0 0.0 0.00 0.32 0.00 97 1015.6
20260903090811 71 247 0.0 0.0 0.00 0.32 0.00 97 1015.6
20260903090709 71 247 0.0 0.0 0.00 0.32 0.00 97 1015.5
20260903090345 71 247 0.0 0.0 0.00 0.32 0.00 97 1015.6
20260903090238 71 247 0.0 0.0 0.00 0.32 0.00 97 1015.6
20260903090130 71 247 0.0 0.0 0.00 0.32 0.00 97 1015.6
20260903085802 71 247 0.0 0.0 0.00 0.32 0.00 97 1015.6
20260903085655 71 247 0.0 0.0 0.00 0.32 0.00 97 1015.6
20260903085549 71 247 0.0 0.0 0.00 0.32 0.00 97 1015.6
20260903085443 71 247 0.0 0.0 0.00 0.32 0.00 97 1015.6
20260903085337 71 247 0.0 0.0 0.00 0.32 0.00 97 1015.6
20260903085234 71 247 0.0 0.0 0.00 0.32 0.00 97 1015.6
20260903085131 71 247 0.0 0.0 0.00 0.32 0.00 97 1015.6
20260903085024 71 247 0.0 0.0 0.00 0.32 0.00 97 1015.5
20260903084921 71 247 0.0 0.0 0.00 0.32 0.00 97 1015.6
20260903084818 71 247 0.0 0.0 0.00 0.32 0.00 97 1015.6
20260903084711 71 247 0.0 0.0 0.00 0.32 0.00 97 1015.5
20260903084606 71 247 0.0 0.0 0.00 0.32 0.00 97 1015.6
20260903084503 71 247 0.0 0.0 0.00 0.32 0.00 97 1015.5
20260903084358 71 247 0.0 0.0 0.00 0.32 0.00 97 1015.5
20260903084255 71 247 0.0 0.0 0.00 0.32 0.00 97 1015.5
20260903084150 71 247 0.0 0.0 0.00 0.32 0.00 97 1015.5
20260903084047 71 247 0.0 0.0 0.00 0.32 0.00 97 1015.5
20260903083943 71 247 0.0 0.0 0.00 0.32 0.00 97 1015.5
20260903083838 71 247 0.0 0.0 0.00 0.32 0.00 97 1015.5
20260903083512 71 247 0.0 0.0 0.00 0.32 0.00 97 1015.6
20260903083407 71 247 0.0 0.0 0.00 0.32 0.00 97 1015.5
20260903083303 71 247 0.0 0.0 0.00 0.32 0.00 97 1015.5
20260903083156 71 247 0.0 0.0 0.00 0.32 0.00 97 1015.5
20260903083050 71 247 0.0 0.0 0.00 0.32 0.00 97 1015.5
20260903082943 71 247 0.0 0.0 0.00 0.32 0.00 97 1015.6
20260903082835 71 247 0.0 0.0 0.00 0.32 0.00 97 1015.6
20260903082733 71 247 0.0 0.0 0.00 0.32 0.00 97 1015.6
20260903082625 71 247 0.0 0.0 0.00 0.32 0.00 97 1015.6
20260903082520 71 247 0.0 0.0 0.00 0.32 0.00 97 1015.6
20260903082411 71 247 0.0 0.0 0.00 0.32 0.00 97 1015.6
20260903082306 71 247 0.0 0.0 0.00 0.32 0.00 97 1015.7
20260903082202 71 247 0.0 0.0 0.00 0.32 0.00 97 1015.6
20260903082058 71 247 0.0 0.0 0.00 0.32 0.00 97 1015.6
20260903081956 71 247 0.0 0.0 0.00 0.32 0.00 97 1015.6
20260903081852 71 247 0.0 0.0 0.00 0.32 0.00 97 1015.6
20260903081748 71 247 0.0 0.0 0.00 0.32 0.00 97 1015.6
20260903081645 71 247 0.0 0.0 0.00 0.32 0.00 97 1015.6
20260903081541 71 247 0.0 0.0 0.00 0.32 0.00 97 1015.6
20260903081435 71 247 0.0 0.0 0.00 0.32 0.00 97 1015.6
20260903081110 71 247 0.0 0.0 0.00 0.32 0.00 97 1015.6
20260903081005 71 247 0.0 0.0 0.00 0.32 0.00 97 1015.6
20260903080640 71 247 0.0 0.0 0.00 0.32 0.00 97 1015.6
20260903080537 71 247 0.0 0.0 0.00 0.32 0.00 97 1015.6
20260903080434 71 247 0.0 0.0 0.00 0.32 0.00 97 1015.7
20260903080330 71 247 0.0 0.0 0.00 0.32 0.00 97 1015.6
20260903080227 71 247 0.0 0.0 0.00 0.32 0.00 97 1015.7
20260903075903 71 247 0.0 0.0 0.00 0.32 0.00 97 1015.6
20260903075755 71 247 0.0 0.0 0.00 0.32 0.00 97 1015.6
20260903075652 71 247 0.0 0.0 0.00 0.32 0.00 97 1015.6
20260903075323 71 247 0.0 0.0 0.00 0.32 0.00 97 1015.6
20260903074959 71 247 0.0 0.0 0.00 0.32 0.00 97 1015.5
20260903074852 71 247 0.0 0.0 0.00 0.32 0.00 97 1015.5
20260903074745 71 247 0.0 0.0 0.00 0.32 0.00 97 1015.5
20260903074419 71 247 0.0 0.0 0.00 0.32 0.00 97 1015.5
20260903074313 71 247 0.0 0.0 0.00 0.32 0.00 97 1015.5
20260903074205 71 247 0.0 0.0 0.00 0.32 0.00 97 1015.5
20260903074100 71 247 0.0 0.0 0.00 0.32 0.00 97 1015.5
20260903073952 71 247 0.0 0.0 0.00 0.32 0.00 97 1015.4
20260903073846 71 247 0.0 0.0 0.00 0.32 0.00 97 1015.4
20260903073743 71 247 0.0 0.0 0.00 0.32 0.00 97 1015.3
20260903073639 71 247 0.0 0.0 0.00 0.32 0.00 97 1015.4
20260903073533 71 247 0.0 0.0 0.00 0.32 0.00 97 1015.4
20260903073429 71 247 0.0 0.0 0.00 0.32 0.00 97 1015.4
20260903073325 71 247 0.0 0.0 0.00 0.32 0.00 97 1015.3
20260903073217 71 214 0.0 0.0 0.00 0.32 0.00 97 1015.3
20260903073114 71 168 0.0 0.0 0.00 0.32 0.00 97 1015.3
20260903073012 71 168 0.0 0.0 0.00 0.32 0.00 97 1015.3
20260903072910 71 168 0.0 0.0 0.00 0.32 0.00 97 1015.2
20260903072548 71 168 0.0 0.0 0.00 0.32 0.00 97 1015.2
20260903072440 71 168 0.0 0.0 0.00 0.32 0.00 97 1015.1
20260903072333 71 168 0.0 0.0 0.00 0.32 0.00 96 1015.1
20260903072224 71 168 0.0 0.0 0.00 0.32 0.00 97 1015.1
20260903072120 71 168 0.0 0.0 0.00 0.32 0.00 96 1015.0
20260903072016 71 168 0.0 0.0 0.00 0.32 0.00 97 1015.1
20260903071914 71 168 0.0 0.0 0.00 0.32 0.00 97 1015.1
20260903071809 71 168 0.0 0.0 0.00 0.32 0.00 97 1015.1
20260903071707 71 168 0.0 0.0 0.00 0.32 0.00 97 1015.1
20260903071602 71 168 0.0 0.0 0.00 0.32 0.00 97 1015.2
20260903071457 71 168 0.0 0.0 0.00 0.32 0.00 97 1015.1
20260903071352 71 168 0.0 0.0 0.00 0.32 0.00 97 1015.2
20260903071246 71 168 0.0 0.0 0.00 0.32 0.00 97 1015.2
20260903071144 71 168 0.0 0.0 0.00 0.32 0.00 96 1015.2
20260903071040 71 168 0.0 0.0 0.00 0.32 0.00 97 1015.2
20260903070936 71 168 0.0 0.0 0.00 0.32 0.00 97 1015.2
20260903070833 71 168 0.0 0.0 0.00 0.32 0.00 97 1015.1
20260903070030 71 168 0.0 0.0 0.00 0.32 0.00 97 1015.1
20260903065923 71 168 0.0 0.0 0.00 0.32 0.00 96 1015.1
20260903065818 71 168 0.0 0.0 0.00 0.32 0.00 97 1015.1
20260903065454 71 168 0.0 0.0 0.00 0.32 0.00 97 1015.0
20260903065347 71 168 0.0 0.0 0.00 0.32 0.00 96 1015.0
20260903065245 71 168 0.0 0.0 0.00 0.32 0.00 96 1015.0
20260903065144 71 168 0.0 0.0 0.00 0.32 0.00 96 1015.1
20260903065040 71 168 0.0 0.0 0.00 0.32 0.00 97 1015.1
20260903064936 71 168 0.0 0.0 0.00 0.32 0.00 96 1015.1
20260903064831 71 168 0.0 0.0 0.00 0.32 0.00 96 1015.1
20260903064726 71 168 0.0 0.0 0.00 0.32 0.00 96 1015.1
20260903064623 71 168 0.0 0.0 0.00 0.32 0.00 96 1015.1
20260903064516 71 168 0.0 0.0 0.00 0.32 0.00 97 1015.1
20260903064412 71 168 0.0 1.0 0.00 0.32 0.00 96 1015.1
20260903064306 71 168 0.0 1.0 0.00 0.32 0.00 96 1015.1
20260903064203 71 168 0.0 1.0 0.00 0.32 0.00 96 1015.1
20260903064100 71 168 0.0 1.0 0.00 0.32 0.00 96 1015.1
20260903063954 71 168 0.0 1.0 0.00 0.32 0.00 96 1015.0
20260903063852 71 168 0.0 1.0 0.00 0.32 0.00 96 1015.0
20260903063745 71 168 0.0 1.0 0.00 0.32 0.00 96 1015.0
20260903063638 71 168 0.0 1.0 0.00 0.32 0.00 96 1015.0
20260903063536 71 168 0.0 0.0 0.00 0.32 0.00 96 1015.0
20260903063429 71 168 0.0 0.0 0.00 0.32 0.00 96 1015.1
20260903063326 71 168 0.0 0.0 0.00 0.32 0.00 96 1015.1
20260903063001 71 168 0.0 0.0 0.00 0.32 0.00 96 1015.2
20260903062854 71 168 0.0 0.0 0.00 0.32 0.00 96 1015.3
20260903062749 71 168 0.0 0.0 0.00 0.32 0.00 96 1015.3
20260903062643 71 168 0.0 0.0 0.00 0.32 0.00 96 1015.3
20260903062535 71 168 0.0 0.0 0.00 0.32 0.00 96 1015.3
20260903062432 71 168 0.0 0.0 0.00 0.32 0.00 96 1015.2
20260903062330 71 168 0.0 0.0 0.00 0.32 0.00 96 1015.3
20260903062226 71 168 0.0 0.0 0.00 0.32 0.00 96 1015.2
20260903062121 71 168 0.0 1.0 0.00 0.32 0.00 96 1015.2
20260903061536 71 168 0.0 1.0 0.00 0.32 0.00 96 1015.3
20260903061429 71 168 0.0 1.0 0.00 0.32 0.00 96 1015.3
20260903061327 71 168 0.0 1.0 0.00 0.32 0.00 96 1015.4
20260903061220 71 168 0.0 1.0 0.00 0.32 0.00 96 1015.4
20260903061115 71 168 0.0 0.0 0.00 0.32 0.00 96 1015.4
20260903061011 71 168 0.0 0.0 0.00 0.32 0.00 96 1015.4
20260903060648 71 168 0.0 1.0 0.00 0.32 0.00 96 1015.5
20260903060320 71 168 0.0 1.0 0.00 0.32 0.00 96 1015.5
20260903060216 71 168 0.0 1.0 0.00 0.32 0.00 96 1015.5
20260903060113 71 168 0.0 1.0 0.00 0.32 0.00 96 1015.5
20260903055747 71 168 0.0 0.0 0.00 0.32 0.00 96 1015.7
20260903055645 71 168 0.0 0.0 0.00 0.32 0.00 96 1015.7
20260903055540 71 168 0.0 0.0 0.00 0.32 0.00 96 1015.7
20260903055217 71 168 0.0 0.0 0.00 0.32 0.00 96 1015.8
20260903054852 71 168 0.0 0.0 0.00 0.32 0.00 96 1015.7
20260903054524 71 168 0.0 0.0 0.00 0.32 0.00 96 1015.9
20260903054419 71 168 0.0 0.0 0.00 0.32 0.00 96 1015.9
20260903054316 71 168 0.0 0.0 0.00 0.32 0.00 96 1015.9
20260903054211 71 168 0.0 0.0 0.00 0.32 0.00 96 1016.0
20260903054109 71 168 0.0 0.0 0.00 0.32 0.00 96 1016.0
20260903054001 71 168 0.0 0.0 0.00 0.32 0.00 96 1016.0
20260903053856 71 168 0.0 0.0 0.00 0.32 0.00 96 1016.0
20260903053753 71 168 0.0 0.0 0.00 0.32 0.00 96 1016.0
20260903053428 71 168 0.0 0.0 0.00 0.32 0.00 96 1016.0
20260903053322 71 168 0.0 0.0 0.00 0.32 0.00 96 1016.0
20260903053215 71 168 0.0 0.0 0.00 0.32 0.00 96 1016.0
20260903052852 71 168 0.0 0.0 0.00 0.32 0.00 96 1015.9
20260903052748 71 168 0.0 0.0 0.00 0.32 0.00 96 1015.9
20260903052644 71 168 0.0 0.0 0.00 0.32 0.00 96 1015.8
20260903052541 71 168 0.0 0.0 0.00 0.32 0.00 96 1015.9
20260903052436 71 168 0.0 0.0 0.00 0.32 0.00 96 1015.8
20260903052333 71 168 0.0 0.0 0.00 0.32 0.00 96 1015.8
20260903051751 71 168 0.0 0.0 0.00 0.32 0.00 96 1016.0
20260903051645 71 168 0.0 0.0 0.00 0.32 0.00 96 1016.0
20260903051543 71 168 0.0 0.0 0.00 0.32 0.00 96 1016.0
20260903051436 71 168 0.0 1.0 0.00 0.32 0.00 96 1016.0
20260903051333 71 168 0.0 1.0 0.00 0.32 0.00 96 1016.1
20260903051230 71 168 0.0 1.0 0.00 0.32 0.00 96 1016.1
20260903051128 71 168 0.0 1.0 0.00 0.32 0.00 96 1016.1
20260903051024 71 148 0.0 0.0 0.00 0.32 0.00 96 1016.1
20260903050922 71 148 0.0 0.0 0.00 0.32 0.00 96 1016.1
20260903050814 71 148 0.0 0.0 0.00 0.32 0.00 96 1016.1
20260903050711 71 148 0.0 0.0 0.00 0.32 0.00 96 1016.1
20260903050605 71 148 0.0 0.0 0.00 0.32 0.00 96 1016.1
20260903050456 71 148 0.0 0.0 0.00 0.32 0.00 96 1016.1
20260903050353 71 148 0.0 0.0 0.00 0.32 0.00 96 1016.1
20260903050249 71 148 0.0 0.0 0.00 0.32 0.00 96 1016.1
20260903050144 71 148 0.0 0.0 0.00 0.32 0.00 96 1016.1
20260903050040 71 148 0.0 0.0 0.00 0.32 0.00 96 1016.1
20260903045938 71 148 0.0 0.0 0.00 0.32 0.00 96 1016.1
20260903045835 71 148 0.0 0.0 0.00 0.32 0.00 96 1016.1
20260903045731 71 148 0.0 0.0 0.00 0.32 0.00 96 1016.2
20260903044918 71 148 0.0 0.0 0.00 0.32 0.00 96 1016.1
20260903044813 71 148 0.0 0.0 0.00 0.32 0.00 96 1016.1
20260903044707 71 148 0.0 0.0 0.00 0.32 0.00 96 1016.1
20260903044603 71 148 0.0 0.0 0.00 0.32 0.00 96 1016.1
20260903044458 71 148 0.0 0.0 0.00 0.32 0.00 96 1016.1
20260903044351 71 148 0.0 0.0 0.00 0.32 0.00 96 1016.1
20260903044249 71 148 0.0 0.0 0.00 0.32 0.00 96 1016.2
20260903044142 71 148 0.0 0.0 0.00 0.32 0.00 96 1016.2
20260903044036 71 148 0.0 0.0 0.00 0.32 0.00 96 1016.2
20260903043933 71 148 0.0 0.0 0.00 0.32 0.00 96 1016.2
20260903043831 71 148 0.0 0.0 0.00 0.32 0.00 96 1016.3
20260903043728 71 148 0.0 0.0 0.00 0.32 0.00 96 1016.3
20260903043622 71 148 0.0 0.0 0.00 0.32 0.00 96 1016.3
20260903043516 71 148 0.0 0.0 0.00 0.32 0.00 96 1016.2
20260903043409 71 148 0.0 0.0 0.00 0.32 0.00 96 1016.2
20260903043307 71 148 0.0 0.0 0.00 0.32 0.00 96 1016.2
20260903043203 71 148 0.0 0.0 0.00 0.32 0.00 96 1016.2
20260903043100 71 148 0.0 0.0 0.00 0.32 0.00 96 1016.1
20260903042954 71 148 0.0 0.0 0.00 0.32 0.00 96 1016.0
20260903042847 71 148 0.0 0.0 0.00 0.32 0.00 96 1016.1
20260903042524 71 148 0.0 0.0 0.00 0.32 0.00 96 1016.0
20260903042421 71 148 0.0 0.0 0.00 0.32 0.00 96 1016.1
20260903042314 71 148 0.0 0.0 0.00 0.32 0.00 96 1016.1
20260903042212 71 148 0.0 0.0 0.00 0.32 0.00 96 1016.1
20260903042106 71 148 0.0 0.0 0.00 0.32 0.00 96 1016.1
20260903042003 71 148 0.0 0.0 0.00 0.32 0.00 96 1016.1
20260903041900 71 148 0.0 0.0 0.00 0.32 0.00 96 1016.1
20260903041757 71 148 0.0 0.0 0.00 0.32 0.00 96 1016.0
20260903041213 71 148 0.0 0.0 0.00 0.32 0.00 96 1016.0
20260903041109 71 148 0.0 0.0 0.00 0.32 0.00 96 1016.0
20260903041004 71 148 0.0 0.0 0.00 0.32 0.00 96 1016.0
20260903040857 71 148 0.0 0.0 0.00 0.32 0.00 96 1016.0
20260903040750 71 148 0.0 0.0 0.00 0.32 0.00 96 1016.0
20260903040426 71 148 0.0 0.0 0.00 0.32 0.00 96 1016.0
20260903040324 71 148 0.0 0.0 0.00 0.32 0.00 96 1015.9
20260903040217 71 148 0.0 0.0 0.00 0.32 0.00 96 1015.9
20260903040113 71 148 0.0 0.0 0.00 0.32 0.00 96 1015.9
20260903040009 71 148 0.0 0.0 0.00 0.32 0.00 96 1016.0
20260903035901 71 148 0.0 0.0 0.00 0.32 0.32 96 1016.0
20260903035755 71 148 0.0 0.0 0.00 0.32 0.32 96 1016.0
20260903035428 71 148 0.0 0.0 0.00 0.32 0.32 96 1016.0
20260903035326 71 148 0.0 0.0 0.00 0.32 0.32 96 1016.0
20260903035218 71 148 0.0 0.0 0.00 0.32 0.32 96 1016.0
20260903035111 71 148 0.0 0.0 0.00 0.32 0.32 96 1016.0
20260903035005 71 148 0.0 0.0 0.00 0.32 0.32 96 1016.0
20260903034430 71 148 0.0 0.0 0.00 0.32 0.32 95 1016.0
20260903034328 71 148 0.0 0.0 0.00 0.32 0.32 95 1016.1
20260903034226 71 148 0.0 0.0 0.00 0.32 0.32 95 1016.1
20260903034120 71 148 0.0 0.0 0.00 0.32 0.32 95 1016.1
20260903034017 71 148 0.0 0.0 0.00 0.32 0.32 95 1016.1
20260903033912 71 148 0.0 0.0 0.00 0.32 0.32 95 1016.1
20260903033805 71 148 0.0 0.0 0.00 0.32 0.32 95 1016.1
20260903033703 71 148 0.0 0.0 0.00 0.32 0.32 95 1016.1
20260903033555 71 148 0.0 0.0 0.00 0.32 0.32 95 1016.1
20260903033230 71 148 0.0 0.0 0.00 0.32 0.32 95 1016.1
20260903033123 71 148 0.0 0.0 0.00 0.32 0.32 95 1016.2
20260903033020 71 148 0.0 0.0 0.00 0.32 0.32 95 1016.1
20260903032915 71 148 0.0 0.0 0.00 0.32 0.32 95 1016.1
20260903032812 71 148 0.0 0.0 0.00 0.32 0.32 95 1016.1
20260903032708 71 148 0.0 0.0 0.00 0.32 0.32 95 1016.1
20260903032605 71 148 0.0 0.0 0.00 0.32 0.32 95 1016.1
20260903032503 71 148 0.0 0.0 0.00 0.32 0.32 95 1016.1
20260903032356 71 148 0.0 0.0 0.00 0.32 0.32 95 1016.1
20260903032030 71 148 0.0 0.0 0.00 0.32 0.32 95 1016.1
20260903031928 71 148 0.0 0.0 0.00 0.32 0.32 95 1016.0
20260903031824 71 148 0.0 0.0 0.00 0.32 0.32 95 1016.0
20260903031721 71 148 0.0 0.0 0.00 0.32 0.32 95 1016.0
20260903031352 71 148 0.0 0.0 0.00 0.32 0.32 95 1016.0
20260903031023 71 148 0.0 0.0 0.00 0.32 0.32 95 1015.9
20260903030658 71 148 0.0 0.0 0.00 0.32 0.32 95 1015.9
20260903030556 71 148 0.0 0.0 0.00 0.32 0.32 95 1016.0
20260903025749 71 148 0.0 0.0 0.00 0.32 0.32 95 1016.0
20260903025646 71 148 0.0 0.0 0.00 0.32 0.32 95 1016.0
20260903025540 72 148 0.0 0.0 0.00 0.32 0.32 95 1016.0
20260903025434 71 148 0.0 0.0 0.00 0.32 0.32 95 1015.9
20260903025331 72 148 0.0 0.0 0.00 0.32 0.32 95 1015.9
20260903025227 72 148 0.0 0.0 0.00 0.32 0.32 95 1016.0
20260903025121 72 148 0.0 0.0 0.00 0.32 0.32 95 1016.0
20260903025019 72 148 0.0 0.0 0.00 0.32 0.32 95 1016.0
20260903024913 72 148 0.0 0.0 0.00 0.32 0.32 95 1016.0
20260903024808 72 148 0.0 0.0 0.00 0.32 0.32 95 1016.0
20260903024706 72 148 0.0 0.0 0.00 0.32 0.32 95 1016.0
20260903024601 72 148 0.0 0.0 0.00 0.32 0.32 95 1016.0
20260903024454 72 148 0.0 0.0 0.00 0.32 0.32 95 1016.0
20260903024347 72 148 0.0 0.0 0.00 0.32 0.32 95 1016.0
20260903024241 72 148 0.0 0.0 0.00 0.32 0.32 95 1015.9
20260903023916 72 148 0.0 0.0 0.00 0.32 0.32 95 1015.9
20260903023812 72 148 0.0 0.0 0.00 0.32 0.32 95 1016.0
20260903023707 72 148 0.0 0.0 0.00 0.32 0.32 95 1015.9
20260903023602 72 148 0.0 0.0 0.00 0.32 0.32 95 1015.9
20260903023456 72 148 0.0 0.0 0.00 0.32 0.32 95 1015.9
20260903023348 72 148 0.0 0.0 0.00 0.32 0.32 95 1015.9
20260903023020 72 148 0.0 0.0 0.00 0.32 0.32 95 1015.8
20260903022435 72 148 0.0 0.0 0.00 0.32 0.32 95 1015.9
20260903022329 72 148 0.0 0.0 0.00 0.32 0.32 95 1015.8
20260903022222 72 148 0.0 0.0 0.00 0.32 0.32 95 1015.8
20260903022119 72 148 0.0 0.0 0.00 0.32 0.32 95 1015.8
20260903022013 72 148 0.0 0.0 0.00 0.32 0.32 95 1015.8
20260903021910 72 148 0.0 0.0 0.00 0.32 0.32 95 1015.8
20260903021546 72 148 0.0 0.0 0.00 0.32 0.32 95 1015.7
20260903021442 72 148 0.0 0.0 0.00 0.32 0.32 95 1015.7
20260903021336 72 148 0.0 0.0 0.00 0.32 0.32 95 1015.7
20260903021230 72 148 0.0 0.0 0.00 0.32 0.32 95 1015.7
20260903021122 72 148 0.0 0.0 0.00 0.32 0.32 95 1015.7
20260903020755 72 148 0.0 0.0 0.00 0.32 0.32 95 1015.7
20260903020433 72 148 0.0 0.0 0.00 0.32 0.32 95 1015.6
20260903020327 72 148 0.0 0.0 0.00 0.32 0.32 95 1015.6
20260903020222 72 148 0.0 0.0 0.00 0.32 0.32 95 1015.7
20260903020114 72 148 0.0 0.0 0.00 0.32 0.32 95 1015.7
20260903020010 72 148 0.0 0.0 0.00 0.32 0.32 95 1015.7
20260903015903 72 148 0.0 0.0 0.00 0.32 0.32 95 1015.7
20260903015758 72 148 0.0 0.0 0.00 0.32 0.32 95 1015.7
20260903015653 72 148 0.0 0.0 0.00 0.32 0.32 95 1015.7
20260903015547 72 148 0.0 0.0 0.00 0.32 0.32 95 1015.7
20260903015444 72 148 0.0 0.0 0.00 0.32 0.32 95 1015.7
20260903015339 73 148 0.0 0.0 0.00 0.32 0.32 95 1015.8
20260903015231 73 153 0.0 0.0 0.00 0.32 0.32 95 1015.8
20260903015125 73 153 0.0 0.0 0.00 0.32 0.32 95 1015.8
20260903014803 73 153 0.0 0.0 0.00 0.32 0.32 95 1015.7
20260903014700 73 153 0.0 0.0 0.00 0.32 0.32 95 1015.8
20260903014554 73 153 0.0 0.0 0.00 0.32 0.32 95 1015.8
20260903014449 73 153 0.0 0.0 0.00 0.32 0.32 95 1015.8
20260903014124 73 153 0.0 0.0 0.00 0.32 0.32 95 1016.0
20260903014019 73 153 0.0 0.0 0.00 0.32 0.32 95 1016.0
20260903013911 73 153 0.0 0.0 0.00 0.32 0.32 95 1016.0
20260903013809 73 153 0.0 0.0 0.00 0.32 0.32 95 1016.0
20260903013447 73 153 0.0 1.0 0.00 0.32 0.32 95 1016.0
20260903013344 73 153 0.0 1.0 0.00 0.32 0.32 95 1016.1
20260903013239 73 153 0.0 1.0 0.00 0.32 0.32 95 1016.1
20260903013137 73 153 0.0 1.0 0.00 0.32 0.32 95 1016.1
20260903013033 73 217 0.0 1.0 0.00 0.32 0.32 95 1016.1
20260903012930 73 217 0.0 1.0 0.00 0.32 0.32 95 1016.1
20260903012827 73 217 0.0 0.0 0.00 0.32 0.32 95 1016.1
20260903012721 73 92 0.0 0.0 0.00 0.32 0.32 95 1016.1
20260903012617 73 92 0.0 0.0 0.00 0.32 0.32 95 1016.1
20260903012511 73 92 0.0 0.0 0.00 0.32 0.32 95 1016.1
20260903012405 73 92 0.0 0.0 0.00 0.32 0.32 95 1016.1
20260903012041 73 92 0.0 0.0 0.00 0.32 0.32 95 1016.1
20260903011938 73 92 0.0 0.0 0.00 0.32 0.32 95 1016.2
20260903011832 73 92 0.0 0.0 0.00 0.32 0.32 95 1016.2
20260903011725 73 92 0.0 0.0 0.00 0.32 0.32 95 1016.2
20260903011622 73 92 0.0 0.0 0.00 0.32 0.32 95 1016.2
20260903011255 73 92 0.0 1.0 0.00 0.32 0.32 95 1016.2
20260903010928 73 63 0.0 1.0 0.00 0.32 0.32 95 1016.3
20260903010821 73 63 0.0 1.0 0.00 0.32 0.32 95 1016.3
20260903010717 73 63 0.0 0.0 0.00 0.32 0.32 95 1016.3
20260903010614 73 63 0.0 0.0 0.00 0.32 0.32 95 1016.3
20260903010507 73 63 0.0 0.0 0.00 0.32 0.32 95 1016.3
20260903010400 73 63 0.0 0.0 0.00 0.32 0.32 95 1016.3
20260903010258 73 63 0.0 0.0 0.00 0.32 0.32 95 1016.3
20260903010155 73 63 0.0 0.0 0.00 0.32 0.32 95 1016.3
20260903010050 73 63 0.0 0.0 0.00 0.32 0.32 95 1016.2
20260903005945 73 63 0.0 0.0 0.00 0.32 0.32 95 1016.2
20260903005616 74 63 0.0 0.0 0.00 0.32 0.32 95 1016.2
20260903005509 74 63 0.0 0.0 0.00 0.32 0.32 95 1016.2
20260903005407 74 63 0.0 0.0 0.00 0.32 0.32 95 1016.2
20260903005306 74 63 0.0 0.0 0.00 0.32 0.32 95 1016.2
20260903005156 74 63 0.0 0.0 0.00 0.32 0.32 95 1016.3
20260903005049 74 63 0.0 0.0 0.00 0.32 0.32 95 1016.2
20260903004942 74 63 0.0 0.0 0.00 0.32 0.32 95 1016.2
20260903004835 74 63 0.0 0.0 0.00 0.32 0.32 95 1016.2
20260903004728 74 63 0.0 0.0 0.00 0.32 0.32 95 1016.2
20260903004626 74 63 0.0 0.0 0.00 0.32 0.32 95 1016.2
20260903004521 74 63 0.0 0.0 0.00 0.32 0.32 95 1016.1
20260903004415 74 63 0.0 0.0 0.00 0.32 0.32 95 1016.2
20260903004312 74 63 0.0 0.0 0.00 0.32 0.32 95 1016.2
20260903004205 74 63 0.0 0.0 0.00 0.32 0.32 95 1016.2
20260903003616 74 63 0.0 1.0 0.00 0.32 0.32 95 1016.2
20260903003246 74 63 0.0 0.0 0.00 0.32 0.32 95 1016.3
20260903003144 74 63 0.0 0.0 0.00 0.32 0.32 95 1016.3
20260903002815 74 63 0.0 0.0 0.00 0.32 0.32 95 1016.4
20260903002454 74 63 0.0 0.0 0.00 0.32 0.32 95 1016.5
20260903002348 74 63 0.0 0.0 0.00 0.32 0.32 95 1016.5
20260903002241 74 63 0.0 0.0 0.00 0.32 0.32 95 1016.5
20260903002135 74 63 0.0 0.0 0.00 0.32 0.32 95 1016.5
20260903002028 74 63 0.0 0.0 0.00 0.32 0.32 95 1016.5
20260903001921 74 63 0.0 0.0 0.00 0.32 0.32 95 1016.5
20260903001815 74 63 0.0 0.0 0.00 0.32 0.32 95 1016.5
20260903001456 74 63 0.0 0.0 0.00 0.32 0.32 95 1016.7
20260903001128 74 63 0.0 0.0 0.00 0.32 0.32 95 1016.7
20260903001023 74 63 0.0 0.0 0.00 0.32 0.32 95 1016.7
20260903000915 74 63 0.0 0.0 0.00 0.32 0.32 95 1016.6
20260903000808 74 63 0.0 0.0 0.00 0.32 0.32 95 1016.6
20260903000703 75 63 0.0 0.0 0.00 0.32 0.32 95 1016.6
20260903000342 75 63 0.0 0.0 0.00 0.32 0.32 95 1016.6
20260903000234 75 63 0.0 0.0 0.00 0.32 0.32 95 1016.7
20260903000132 75 63 0.0 1.0 0.00 0.32 0.32 95 1016.7
20260903000024 75 63 0.0 1.0 0.00 0.32 0.32 95 1016.7
20260902235920 75 63 0.0 0.0 0.00 0.32 0.32 95 1016.7
20260902235815 75 63 0.0 0.0 0.00 0.32 0.32 95 1016.6
20260902235452 75 63 0.0 0.0 0.00 0.32 0.32 95 1016.5
20260902235350 75 63 0.0 0.0 0.00 0.32 0.32 95 1016.5
20260902235246 75 63 0.0 0.0 0.00 0.32 0.32 95 1016.5
20260902235139 75 63 0.0 0.0 0.00 0.32 0.32 95 1016.5
20260902235033 75 63 0.0 0.0 0.00 0.32 0.32 95 1016.5
20260902234930 75 63 0.0 0.0 0.00 0.32 0.32 95 1016.5
20260902234822 75 63 0.0 0.0 0.00 0.32 0.32 95 1016.5
20260902234717 75 63 0.0 0.0 0.00 0.32 0.32 95 1016.5
20260902234611 75 63 0.0 0.0 0.00 0.32 0.32 95 1016.5
20260902234507 75 63 0.0 0.0 0.00 0.32 0.32 95 1016.4
20260902234401 75 63 0.0 0.0 0.00 0.32 0.32 95 1016.4
20260902234255 75 63 0.0 0.0 0.00 0.32 0.32 95 1016.4
20260902234151 75 63 0.0 0.0 0.00 0.32 0.32 95 1016.4
20260902233824 75 63 0.0 0.0 0.00 0.32 0.32 95 1016.4
20260902233719 75 63 0.0 0.0 0.00 0.32 0.32 95 1016.4
20260902233353 75 63 0.0 0.0 0.00 0.32 0.32 95 1016.3
20260902233251 75 63 0.0 0.0 0.00 0.32 0.32 95 1016.3
20260902232928 75 63 0.0 0.0 0.00 0.32 0.32 95 1016.2
20260902232603 75 63 0.0 0.0 0.00 0.32 0.32 95 1016.2
20260902232455 75 63 0.0 0.0 0.00 0.32 0.32 95 1016.3
20260902232350 75 63 0.0 0.0 0.00 0.32 0.32 95 1016.2
20260902232244 75 63 0.0 0.0 0.00 0.32 0.32 95 1016.3
20260902232141 75 63 0.0 0.0 0.00 0.32 0.32 95 1016.3
20260902232035 75 63 0.0 0.0 0.00 0.32 0.32 95 1016.3
20260902231709 75 63 0.0 0.0 0.00 0.32 0.32 95 1016.2
20260902231603 75 63 0.0 0.0 0.00 0.32 0.32 95 1016.2
20260902231459 75 63 0.0 0.0 0.00 0.32 0.32 95 1016.3
20260902231358 75 63 0.0 0.0 0.00 0.32 0.32 95 1016.3
20260902231255 76 63 0.0 0.0 0.00 0.32 0.32 95 1016.3
20260902231153 75 63 0.0 0.0 0.00 0.32 0.32 95 1016.3
20260902231046 76 63 0.0 0.0 0.00 0.32 0.32 95 1016.4
20260902230940 76 63 0.0 0.0 0.00 0.32 0.32 95 1016.4
20260902230836 76 63 0.0 0.0 0.00 0.32 0.32 95 1016.5
20260902230730 76 63 0.0 0.0 0.00 0.32 0.32 95 1016.5
20260902230623 76 63 0.0 0.0 0.00 0.32 0.32 95 1016.5
20260902230516 76 63 0.0 0.0 0.00 0.32 0.32 95 1016.5
20260902230409 76 63 0.0 0.0 0.00 0.32 0.32 95 1016.6
20260902230305 76 63 0.0 0.0 0.00 0.32 0.32 95 1016.6
20260902230158 76 63 0.0 0.0 0.00 0.32 0.32 95 1016.6
20260902230054 76 63 0.0 0.0 0.00 0.32 0.32 95 1016.7
20260902225951 76 63 0.0 0.0 0.00 0.32 0.32 95 1016.6
20260902225846 76 63 0.0 0.0 0.00 0.32 0.32 95 1016.7
20260902225738 76 63 0.0 0.0 0.00 0.32 0.32 95 1016.7
20260902225635 76 63 0.0 0.0 0.00 0.32 0.32 95 1016.7
20260902225311 76 63 0.0 0.0 0.00 0.32 0.32 95 1016.9
20260902225207 76 63 0.0 0.0 0.00 0.32 0.32 95 1017.0
20260902225104 76 63 0.0 0.0 0.00 0.32 0.32 95 1017.1
20260902224959 76 63 0.0 0.0 0.00 0.32 0.32 95 1017.1
20260902224851 76 63 0.0 1.0 0.00 0.32 0.32 95 1017.1
20260902224745 76 63 0.0 1.0 0.00 0.32 0.32 95 1017.0
20260902224640 76 63 0.0 1.0 0.00 0.32 0.32 95 1017.0
20260902224533 76 63 0.0 1.0 0.00 0.32 0.32 95 1016.9
20260902224427 76 63 0.0 0.0 0.00 0.32 0.32 95 1016.8
20260902224325 76 63 0.0 0.0 0.00 0.32 0.32 95 1016.8
20260902224218 76 63 0.0 0.0 0.00 0.32 0.32 95 1016.8
20260902223855 76 63 0.0 0.0 0.00 0.32 0.32 96 1016.7
20260902223747 76 63 0.0 0.0 0.00 0.32 0.32 96 1016.7
20260902223641 76 63 0.0 0.0 0.00 0.32 0.32 96 1016.6
20260902223313 76 63 0.0 0.0 0.00 0.32 0.32 96 1016.5
20260902223208 76 63 0.0 0.0 0.00 0.32 0.32 96 1016.5
20260902223102 76 63 0.0 0.0 0.00 0.32 0.32 96 1016.5
20260902222955 76 63 0.0 0.0 0.00 0.32 0.32 96 1016.6
20260902222848 76 63 0.0 0.0 0.00 0.32 0.32 96 1016.5
20260902222745 76 63 0.0 0.0 0.00 0.32 0.32 96 1016.6
20260902222639 76 63 0.0 0.0 0.00 0.32 0.32 96 1016.6